Overview Statistics Trail Chart Weather Telemetry Raw packets
 

This is the latest recevied weather packets stored in our database for station/object VK5GR-12. If no packets are shown the sender has not sent any weather packets the latest 10 day(s).

<< 29 30 31 32 33 34 35 >>
Time Temp. Humidity Pressure Rain* Wind** Luminosity Snow
1787973989 22.78° C 41% 1033.1 hPa 0 mm - 534 W/m² -
1787973085 22.22° C 42% 1033.3 hPa 0 mm - 543 W/m² -
1787972185 22.78° C 42% 1033.5 hPa 0 mm - 547 W/m² -
1787971283 22.22° C 43% 1033.6 hPa 0 mm - 547 W/m² -
1787970378 22.22° C 41% 1033.9 hPa 0 mm - 546 W/m² -
1787969475 22.22° C 45% 1033.9 hPa 0 mm - 542 W/m² -
1787968575 21.67° C 46% 1034 hPa 0 mm - 533 W/m² -
1787967674 21.11° C 47% 1034.2 hPa 0 mm - 520 W/m² -
1787966772 20.56° C 51% 1034.3 hPa 0 mm - 504 W/m² -
1787965872 20° C 50% 1034.5 hPa 0 mm - 485 W/m² -
1787964968 20° C 47% 1034.6 hPa 0 mm - 461 W/m² -
1787964067 20° C 51% 1034.6 hPa 0 mm - 437 W/m² -
1787963173 18.89° C 54% 1034.6 hPa 0 mm - 406 W/m² -
1787962261 18.33° C 59% 1034.6 hPa 0 mm - 374 W/m² -
1787961356 17.22° C 64% 1034.7 hPa 0 mm - 341 W/m² -
1787960457 15.56° C 70% 1034.4 hPa 0 mm - 305 W/m² -
1787959551 15.56° C 68% 1034.5 hPa 0 mm - 270 W/m² -
1787958647 13.89° C 74% 1034.4 hPa 0 mm - 227 W/m² -
1787957743 13.89° C 73% 1034.3 hPa 0 mm - 100 W/m² -
1787956838 12.22° C 76% 1034.3 hPa 0 mm - 58 W/m² -
1787955933 11.67° C 77% 1034 hPa 0 mm - 32 W/m² -
1787955030 11.11° C 78% 1033.7 hPa 0 mm - 29 W/m² -
1787954127 10.56° C 77% 1033.6 hPa 0 mm - 25 W/m² -
1787953226 10.56° C 77% 1033.4 hPa 0 mm - 19 W/m² -
1787952324 10.56° C 77% 1033.3 hPa 0 mm - 11 W/m² -

* Rain latest hour (hover to see other rain measurements)
** Current wind speed in m/s (hover to see current wind gust speed)